(Global) Earthquake at 2022-05-21 07:01:22 in NORTH OF SVALBARD Latitude 84.45 Longitude 5.95 , at a depth of 2 km Magnitude 5.8
Global alerts
Previous warnings
Time Mag Region Lat Lng Adancime Sursa Raport
2022-05-21 07:01:22 5.8 NORTH OF SVALBARD 84.45 5.95 2 EMSC Detalii
2022-05-20 09:07:45 5.7 OFFSHORE COQUIMBO, CHILE -29.44 -72.22 20 EMSC Detalii
2022-05-19 10:13:28 6.7 MACQUARIE ISLAND REGION -54.26 159.30 2 EMSC Detalii
2022-05-19 09:23:51 5.9 TONGA -16.22 -173.93 100 EMSC Detalii
2022-05-19 03:29:04 5.7 SOUTH SANDWICH ISLANDS REGION -57.05 -25.46 10 EMSC Detalii
2022-05-18 20:23:45 5.8 SOUTH SANDWICH ISLANDS REGION -58.79 -25.38 5 EMSC Detalii
2022-05-16 18:58:25 6.1 SOUTHWEST OF SUMATRA, INDONESIA -5.30 101.88 40 EMSC Detalii
2022-05-16 05:25:50 5.6 KURIL ISLANDS 50.80 156.26 60 EMSC Detalii
2022-05-14 15:20:05 5.9 KERMADEC ISLANDS REGION -28.92 -176.70 36 EMSC Detalii
2022-05-12 10:27:42 5.8 EASTERN UZBEKISTAN 38.19 67.02 10 EMSC Detalii
2022-05-10 23:18:47 5.8 SOUTH SANDWICH ISLANDS REGION -55.40 -28.13 10 EMSC Detalii
2022-05-10 23:06:28 6.7 JUJUY, ARGENTINA -23.62 -66.74 183 EMSC Detalii
2022-05-10 13:18:16 5.8 VANUATU -17.35 167.74 30 EMSC Detalii
2022-05-09 22:33:07 6.0 BISMARCK SEA -3.26 146.40 10 EMSC Detalii
2022-05-09 06:23:02 6.5 TAIWAN REGION 23.98 122.45 2 EMSC Detalii
2022-05-08 21:51:39 6.1 MOLUCCA SEA 2.01 127.20 43 EMSC Detalii
2022-05-05 08:21:20 6.1 PHILIPPINE ISLANDS REGION 6.49 127.17 39 EMSC Detalii
2022-05-01 21:57:41 5.8 VOLCANO ISLANDS, JAPAN REGION 23.55 143.41 12 EMSC Detalii
2022-04-29 08:33:31 5.6 CENTRAL EAST PACIFIC RISE -4.44 -104.95 33 EMSC Detalii
2022-04-28 13:21:21 5.9 EASTERN NEW GUINEA REG., P.N.G. -4.21 146.24 30 EMSC Detalii
2022-04-24 04:27:54 5.6 BOSNIA AND HERZEGOVINA 43.06 18.15 5 EMSC Detalii
2022-04-24 01:35:03 6.0 KURIL ISLANDS 46.19 152.71 40 EMSC Detalii
2022-04-22 21:07:49 5.7 BOSNIA AND HERZEGOVINA 43.05 18.21 10 EMSC Detalii
2022-04-22 06:15:14 5.6 KERMADEC ISLANDS, NEW ZEALAND -30.36 -177.05 2 EMSC Detalii
2022-04-21 07:42:49 6.7 NEAR COAST OF NICARAGUA 11.71 -86.92 40 EMSC Detalii
2022-04-20 21:57:47 5.8 MINDANAO, PHILIPPINES 6.95 126.92 57 EMSC Detalii
2022-04-20 15:16:30 5.6 TONGA REGION -19.38 -172.94 10 EMSC Detalii
2022-04-20 11:05:38 5.6 SCOTIA SEA -60.23 -46.94 10 EMSC Detalii
2022-04-20 05:13:16 5.7 SOUTHEAST OF LOYALTY ISLANDS -22.85 171.15 100 EMSC Detalii
2022-04-19 04:33:40 5.7 TONGA -21.37 -173.76 10 EMSC Detalii
Regional Alerts
Local previous warnings
Time Mag Region Lat Lng Adancime Details
2022-02-13 18:25:56 UTC Mw 5.4 ARMENIA 41.14 43.99 10 f -
2021-11-19 12:40:53 UTC Mw 5.2 EASTERN TURKEY 39.81 41.92 5 f -
2019-09-26 10:59:25 UTC Mw 5.7 WESTERN TURKEY 40.87 28.19 7 f -
2018-10-28 00:38:10 UTC Mw 5.5 ROMANIA 45.60 26.40 151 f -
2017-05-11 17:58:01 UTC mb 5.0 EASTERN TURKEY 40.07 40.71 3 f -
2016-12-27 23:20:56 UTC Mw 5.6 ROMANIA 45.72 26.61 91 f -
2016-10-15 08:18:33 UTC Mw 5.1 BLACK SEA 42.20 30.69 10 -
2016-09-23 23:11:20 UTC Mw 5.7 ROMANIA 45.71 26.62 92 f -
2014-11-22 19:14:17 UTC Mw 5.6 ROMANIA 45.87 27.16 39 f -
2013-10-06 01:37:21 UTC Mw 5.3 ROMANIA 45.64 26.69 134 -
2013-05-28 00:09:52 UTC mb 5.2 GEORGIA (SAK'ART'VELO) 43.22 41.58 2 -
2012-12-25 22:44:32 UTC Mw 5.4 BLACK SEA, OFFSHORE GEORGIA 42.54 40.94 2 -
2012-12-23 13:31:40 UTC Mw 5.7 BLACK SEA, OFFSHORE GEORGIA 42.58 40.98 10 -
2012-06-07 20:54:26 UTC Mw 5.1 WESTERN TURKEY 40.85 27.92 14 f -
2011-09-22 03:22:36 UTC Mw 5.5 EASTERN TURKEY 39.79 38.84 5 -
2011-07-25 17:57:21 UTC Mw 5.0 WESTERN TURKEY 40.80 27.75 16 f -
2011-01-19 09:17:49 UTC mb 5.3 GEORGIA (SAK'ART'VELO) 42.01 42.60 2 -
2010-08-12 02:23:04 UTC Mw 4.5 WESTERN TURKEY 39.66 27.61 2 -
2009-09-07 22:41:36 UTC Mw 5.9 GEORGIA (SAK'ART'VELO) 42.66 43.42 10 -
2009-04-25 17:18:48 UTC mb 5.3 ROMANIA 45.70 26.63 96 -
2008-05-07 08:00:21 UTC mb 5.0 UKRAINE 45.36 30.88 10 -
2006-02-06 04:08:00 UTC mb 5.0 GEORGIA (SAK'ART'VELO) 42.64 43.52 10 -
2005-12-13 12:14:44 UTC mb 5.0 ROMANIA 45.78 26.79 144 -
2005-06-18 15:16:40 UTC mb 5.0 ROMANIA 45.79 26.91 135 -
2005-05-14 01:53:20 UTC mb 5.1 ROMANIA 45.66 26.47 144 -
2004-10-27 20:34:32 UTC Mw 6.0 ROMANIA 45.83 26.77 76 -
2004-10-03 09:02:01 UTC mb 5.0 UKRAINE-ROMANIA BORDER REGION 45.16 29.09 2 -

Live Video Mangalia

Very Low Warning! (global)

Event report
2022-05-21 07:01:22 magnitude 5.8

Detalii (EMSC)

Very Low Warning! (local)

Weather data
Station Absolute Pressure (hPa) Int Temperature (C) Int Moisture (%) Ext Temperature (C) Ext Moisture (%) Wind speed (km / h) Wind Direction (degrees) Rainfall (mm)
Eforie AbsP InTmC InH% OTmpC OH% WKmh WDir TRNmm
Water level data - BLACK SEA

Mangalia

Denumire Valoare
Time 21 Jun 2016 07:32:06
Lev RAD(m) -7.69
Forecast30 (m) -7.7
Forecast300 (m) -7.7
Rms (m) 0.02
Alert Signal (m) 0
Alert (-) 0
Battery (V) 13.14
Panel (V) -7.7
Sensor Temp (C) 35.9
Temperature (C) 40.2

View Raw Data »

View Raw Plots »

Constanta

Name Value
Time 21 Jun 2016 07:32:06
Lev RAD(m) -7.69
Forecast30 (m) -7.7
Forecast300 (m) -7.7
Rms (m) 0.02
Alert Signal (m) 0
Alert (-) 0
Battery (V) 13.14
Panel (V) -7.7
Sensor Temp (C) 35.9
Temperature (C) 40.2

View Raw Data »

View Raw Plots »

View Plot »

Sulina

Name Value
Time 21 Jun 2016 07:32:06
Lev RAD(m) -7.69
Forecast30 (m) -7.7
Forecast300 (m) -7.7
Rms (m) 0.02
Alert Signal (m) 0
Alert (-) 0
Battery (V) 13.14
Panel (V) -7.7
Sensor Temp (C) 35.9
Temperature (C) 40.2

View Raw Data »

View Raw Plots »